Weather in Mishukovo

Russia / Murmansk Oblast     69°02′42″N   33°02′16″E
temp.,
°C
wind,
m/s
gust,
m/s
humid.,
%
clouds,
%
prec.,
mm/h
press.,
hPa
HPBL,
m
29 november, mon
mon2900:00−18s35955 0.0 101362
03:00−17s359527 0.0 101468
06:00−16s369585 0.0 101386
09:00−15s379498 0.0 1013115
12:00−15s499390 0.0 1013150
15:00−13s41090100 0.0 1012221
18:00−13s4990100 0.0 1012185
21:00−12s41087100 0.0 1012215
30 november, tue
tue3000:00−12s4886100 0.0 1011174
03:00−13s3690100 0.0 1011106
06:00−14s359298 0.0 100978
09:00−15s229579 0.0 100826
12:00−18ese119565 0.0 100710
15:00−16ene1189100 0.0 100424
18:00−12nne2290100 0.0 100137
21:00−10nne2592100 0.0 998105
1 december, wed
wed100:00−6e71674100 0.0 996722
03:00−5e81667100 0.0 994827
06:00−4e91761100 0.0 993957
09:00−3e101963100 0.0 9931142
12:00−3ene112062100 0.0 9931283
15:00−3ene122164100 0.0 9931439
18:00−3ene122167100 0.0 9931538
21:00−3e112076100 0.1 9951401
2 december, thu
thu200:00−3ene101969100 0.0 9961341
03:00−3ene101867100 0.0 9971223
06:00−3ene91767100 0.0 9981105
09:00−3ene91667100 0.1 1000954
12:00−3ene91667100 0.0 1001817
15:00−4ene81481100 0.2 1003815
18:00−5ene7137674 0.1 1004498
21:00−7ene4119190 0.1 1006340
3 december, fri
fri300:00−7ene31094100 0.3 1006386
03:00−8ene3992100 0.4 1007231
06:00−10ne119890 0.1 100814
09:00−10ne149897 0.1 101070
12:00−11ne119867 0.0 101110
15:00−13ne119864 0.0 101210
18:00−14ne119862 0.0 10149
21:00−14nne119842 0.0 10159